Location: Newark
(34.0635°N, 86.7609°W)
Time: 12:59:21
(UTC+00:00)

N. Korean satellite - Pass Details

Date: 23 December 2019
Orbit: 454 x 508 km, 97.2° (Epoch: 17 January)

Event Time Altitude Azimuth Distance (km) Brightness Sun altitude
Rises 10:30:35 0° 39° (NE) 2,476 10.5 -27.9°
Reaches altitude 10° 10:34:27 10° 84° (E) 1,590 10.1 -27.1°
Maximum altitude 10:34:57 10° 93° (E) 1,574 10.1 -27.0°
Drops below altitude 10° 10:35:27 10° 101° (ESE) 1,588 10.2 -26.9°
Sets 10:39:16 0° 146° (SSE) 2,453 10.8 -26.2°
